Temperature
6 6 7 7 7 7 7 7 7 7 7 7 7 7 7 7 7 7 7 7 7 7 7 7 7 7 7 7 7 7 7 7 7 7 7 7 7 7 7 7 7 7 7
6 6 6 6 6 6 6 6 7 7 7 7 7 7 7 7 7 7 7 6 7 7 7 6 6 6 6 6 6 6 6 6 6 6 6 6 6 6 6 6 6 6 6
5 5 5 5 5 5 5 6 6 6 6 6 6 6 6 6 6 6 6 6 6 6 6 6 6 6 6 6 6 6 6 6 6 6 5 5 5 5 5 5 5 5 5
4 4 5 5 5 5 5 5 5 6 6 6 6 6 6 6 6 6 6 6 6 6 6 6 5 5 5 5 5 5 5 5 5 5 5 5 4 4 4 5 5 5 5
3 4 4 4 4 4 5 5 5 5 5 5 5 5 5 5 5 5 5 5 5 5 5 5 5 5 5 5 5 5 5 4 4 4 4 4 4 4 4 4 4 4 4
3 3 3 3 4 4 4 4 4 4 4 5 5 5 5 5 5 5 5 5 5 5 5 5 4 4 4 4 4 4 4 4 4 4 3 3 3 3 3 3 3 3 3
2 2 2 3 3 3 3 3 4 4 4 4 4 4 4 4 4 4 4 4 4 4 4 4 4 4 4 4 3 3 3 3 3 3 3 3 3 3 3 3 3 2 2
1 2 2 2 2 2 3 3 3 3 3 3 3 3 3 3 3 3 3 4 4 3 4 3 3 3 3 3 3 3 3 3 2 2 2 2 2 2 2 2 2 2 2
1 1 1 1 2 2 2 2 2 2 2 2 2 3 3 3 3 3 3 3 3 3 3 3 3 2 2 2 2 2 2 2 2 2 1 1 1 1 1 1 1 1 1
0 0 1 1 1 1 1 2 2 2 2 2 2 2 2 2 2 2 2 2 2 2 2 2 2 2 2 2 2 2 2 1 1 1 1 1 1 1 1 1 0 0 0
-1 -0 -0 0 0 1 1 1 1 1 1 1 1 1 1 1 2 2 2 2 2 2 1 1 1 1 1 1 1 1 1 1 0 1 0 1 0 0 0 0 -0 -0 -0
-1 -1 -1 -1 -0 -0 0 0 0 0 0 0 0 0 0 1 1 1 1 1 1 1 1 1 1 1 0 0 0 0 0 -0 -0 -0 -0 -0 -0 -0 -0 -0 -0 -1 -1
-2 -2 -1 -1 -1 -1 -0 -0 -0 -0 -0 -0 -0 -0 -0 -0 0 0 0 0 0 0 0 0 -0 -0 -0 -0 -0 -1 -1 -1 -1 -1 -1 -1 -1 -1 -1 -1 -1 -1 -1
-2 -2 -2 -2 -2 -1 -1 -1 -1 -1 -1 -1 -1 -1 -1 -0 -0 -0 -0 -0 -0 -0 -1 -1 -1 -1 -1 -1 -1 -1 -1 -1 -1 -1 -1 -1 -1 -1 -1 -2 -2 -2 -2
-3 -3 -3 -2 -2 -2 -2 -2 -2 -2 -1 -1 -1 -1 -1 -1 -1 -1 -1 -1 -1 -1 -1 -1 -1 -1 -1 -1 -2 -2 -2 -2 -2 -2 -2 -2 -2 -2 -2 -2 -2 -3 -2
-3 -3 -3 -3 -3 -3 -3 -3 -3 -3 -2 -2 -2 -2 -2 -2 -2 -2 -2 -1 -1 -2 -2 -2 -2 -2 -2 -2 -2 -2 -2 -2 -3 -3 -3 -3 -3 -3 -3 -3 -3 -3 -3
-4 -4 -4 -3 -3 -3 -3 -3 -3 -3 -3 -3 -3 -3 -2 -2 -2 -2 -2 -2 -2 -2 -2 -2 -2 -2 -2 -2 -3 -3 -3 -3 -3 -3 -3 -3 -3 -3 -4 -4 -4 -4 -4
-4 -4 -4 -4 -4 -4 -4 -4 -4 -4 -4 -3 -3 -3 -3 -3 -3 -3 -3 -3 -3 -3 -3 -3 -3 -3 -3 -3 -3 -3 -3 -3 -3 -3 -4 -4 -4 -4 -4 -4 -4 -4 -4
-5 -5 -5 -4 -4 -4 -4 -4 -4 -4 -4 -4 -4 -4 -4 -4 -4 -3 -3 -3 -3 -3 -3 -3 -3 -3 -3 -4 -4 -4 -4 -4 -4 -4 -4 -4 -4 -4 -4 -5 -5 -5 -5
-5 -5 -5 -5 -5 -5 -5 -5 -5 -4 -4 -4 -4 -4 -4 -4 -4 -4 -4 -4 -4 -4 -4 -4 -4 -4 -4 -4 -4 -4 -4 -4 -5 -5 -5 -5 -5 -5 -5 -5 -5 -5 -6
-6 -6 -6 -5 -5 -5 -5 -5 -5 -5 -5 -5 -5 -5 -5 -5 -4 -4 -4 -5 -5 -5 -4 -4 -4 -4 -5 -5 -5 -5 -5 -5 -5 -5 -5 -5 -5 -5 -5 -6 -6 -6 -6
-7 -6 -6 -6 -6 -6 -6 -6 -6 -6 -5 -5 -5 -5 -5 -5 -5 -5 -5 -5 -5 -5 -5 -5 -5 -5 -5 -5 -5 -5 -5 -5 -5 -5 -6 -6 -6 -6 -6 -6 -6 -6 -6
-7 -7 -7 -7 -7 -6 -6 -6 -6 -6 -6 -6 -6 -6 -6 -6 -6 -6 -6 -6 -6 -6 -6 -6 -6 -6 -6 -6 -6 -6 -6 -6 -6 -6 -6 -6 -6 -6 -6 -6 -6 -7 -7
-8 -8 -7 -7 -7 -7 -7 -7 -7 -7 -6 -6 -6 -6 -6 -6 -6 -6 -6 -6 -6 -6 -6 -6 -6 -6 -6 -6 -6 -6 -6 -6 -6 -6 -6 -6 -6 -6 -6 -7 -7 -7 -7
-8 -8 -8 -8 -8 -8 -8 -7 -7 -7 -7 -7 -7 -7 -7 -6 -6 -6 -6 -6 -6 -6 -6 -6 -7 -7 -7 -7 -7 -7 -7 -7 -7 -6 -7 -7 -7 -7 -7 -7 -7 -7 -7
-9 -8 -8 -8 -8 -8 -8 -8 -8 -7 -7 -7 -7 -7 -7 -7 -7 -7 -7 -7 -7 -7 -7 -7 -7 -7 -7 -7 -7 -7 -7 -7 -7 -7 -7 -7 -7 -7 -7 -8 -8 -8 -8
Wind_Speed
2 2 2 3 3 4 4 5 5 4 5 6 6 6 6 5 5 4 4 4 4 3 3 3 2 2 2 1 1 1 1 1 1 0 1 1 1 1 1 1 0 1 2
1 1 2 3 4 4 4 4 5 5 5 5 6 5 5 5 5 6 5 5 5 4 4 3 3 2 2 1 1 1 1 1 2 2 0 0 0 1 1 0 1 1 2
1 1 2 3 4 4 4 4 5 5 5 5 5 6 5 5 5 5 5 5 4 4 4 4 3 3 2 2 2 2 1 1 1 2 1 0 0 0 1 1 1 1 2
1 1 1 2 3 3 4 4 5 5 5 5 5 5 5 5 5 5 5 5 4 3 3 3 3 4 4 3 3 2 2 1 1 1 1 0 0 0 1 1 1 1 1
1 1 1 1 3 3 4 4 5 5 5 5 5 5 4 5 5 5 5 5 5 4 3 3 3 3 4 3 3 3 3 2 2 1 1 1 1 1 1 1 2 1 2
1 2 1 2 3 3 4 4 5 5 5 5 5 6 4 4 6 7 6 5 5 5 4 3 3 3 3 4 4 3 4 4 4 3 2 2 2 2 1 1 1 1 2
1 2 2 2 3 3 3 4 5 5 5 5 5 5 5 5 7 7 7 5 5 5 4 4 3 3 3 3 3 3 2 2 4 4 3 3 3 2 2 2 2 2 3
1 2 2 3 3 3 3 4 4 4 4 5 5 5 5 5 8 8 7 5 4 4 4 4 4 3 3 4 3 3 2 1 1 2 2 2 2 2 2 2 3 1 1
1 2 2 3 3 3 4 3 4 4 4 4 4 5 5 5 7 8 7 5 4 4 3 4 4 4 5 5 4 3 2 1 2 2 1 0 1 2 2 0 0 0 2
1 1 1 3 3 3 3 3 4 4 4 4 4 4 5 5 7 8 7 5 5 4 3 3 4 4 5 5 4 4 2 1 1 1 1 2 2 2 2 1 2 2 2
1 2 2 2 3 3 3 3 4 5 5 4 4 3 3 4 5 7 7 5 5 4 3 3 3 5 5 5 3 3 3 2 1 1 0 0 1 1 1 1 1 2 3
2 3 2 2 2 2 4 4 4 5 5 5 4 3 2 2 3 5 6 6 5 5 4 3 3 4 5 4 3 3 3 2 1 1 1 1 1 1 1 1 2 3 3
3 3 3 3 2 2 3 4 4 4 4 4 4 3 2 2 3 4 5 5 4 3 3 4 4 4 3 3 3 3 3 2 2 2 2 2 2 2 1 1 2 2 3
3 2 2 3 3 2 2 2 3 3 4 4 3 3 3 2 2 2 2 3 4 3 2 3 3 3 2 2 2 2 2 2 2 3 3 2 1 1 1 1 2 2 2
2 2 2 2 3 2 2 2 2 1 2 3 3 3 4 3 3 4 3 2 2 3 2 2 1 2 2 2 2 2 2 2 2 2 2 2 1 1 2 2 2 2 3
2 2 1 2 2 2 3 3 5 3 4 3 2 2 1 2 3 4 3 4 4 5 3 2 3 3 3 3 3 2 2 2 2 2 2 2 2 2 2 2 2 3 4
2 1 1 1 2 2 2 3 2 3 4 3 3 2 2 2 2 3 3 3 4 4 2 3 3 3 3 3 3 3 3 3 2 3 3 3 3 3 3 3 3 3 4
2 2 1 1 1 1 2 2 2 2 2 1 1 2 2 1 1 2 3 2 2 2 2 3 3 3 3 3 3 3 3 3 3 3 3 3 3 3 3 4 4 4 5
2 1 1 1 1 1 1 2 2 2 2 1 1 0 1 1 1 1 1 1 2 2 2 2 3 3 3 3 3 3 3 3 3 3 4 4 4 4 4 4 4 6 6
2 3 2 1 1 1 1 1 1 1 1 1 1 1 1 1 1 1 1 1 2 2 2 3 3 3 3 3 3 3 3 3 4 4 4 4 4 4 4 4 4 4 5
2 2 3 2 1 1 1 1 1 1 1 1 1 2 2 2 2 2 2 2 2 3 3 3 3 3 3 3 3 3 4 4 4 4 4 4 4 4 4 4 4 4 4
2 2 2 1 1 0 0 1 1 1 1 1 2 2 2 1 2 2 2 2 2 2 2 2 3 3 3 3 3 4 4 4 4 4 4 4 4 4 4 4 4 4 4
3 2 2 1 1 1 1 1 0 1 2 2 2 2 2 2 2 2 2 2 2 2 2 2 3 3 3 4 4 4 4 5 5 5 4 4 4 4 4 5 5 5 5
3 3 2 2 1 1 1 1 1 2 2 2 2 2 2 2 2 2 2 2 2 2 3 3 3 4 4 4 5 5 6 7 7 6 6 5 5 5 4 5 5 5 6
3 3 3 2 2 1 1 2 2 2 2 2 2 2 2 2 2 2 2 2 2 3 3 4 4 4 5 6 6 6 7 8 8 7 6 5 5 5 5 5 5 5 6
3 3 3 2 2 2 2 2 2 2 2 3 3 2 3 3 3 3 2 2 2 3 3 4 5 5 6 6 7 7 8 8 8 8 7 5 5 5 5 5 6 6 6
Wind_Direction
122 133 145 155 157 156 163 168 166 164 163 166 165 163 166 170 166 161 160 160 157 156 153 151 158 146 135 136 130 122 110 123 185 261 22 105 95 97 80 98 337 319 293
109 132 148 149 153 157 163 167 165 162 162 163 159 157 161 165 164 165 165 165 162 164 163 151 155 144 137 143 128 126 139 149 163 182 253 20 12 161 127 92 315 304 303
89 111 150 160 164 163 165 165 161 157 157 156 157 158 160 158 156 161 159 156 154 159 162 162 165 152 155 156 134 141 158 128 139 164 194 315 318 161 139 254 269 296 295
100 111 153 173 163 159 159 158 157 155 155 153 153 154 154 152 153 155 154 150 146 147 150 158 166 164 166 163 156 150 136 125 121 126 143 284 319 235 181 224 271 258 277
94 111 134 143 138 144 146 147 149 147 150 147 145 144 145 151 156 152 149 149 149 146 140 139 144 153 161 164 161 158 155 164 154 153 176 231 239 223 232 239 241 261 289
77 89 94 116 121 131 139 139 142 144 145 144 147 146 147 159 150 152 153 149 150 150 149 144 141 142 145 144 145 158 175 182 180 183 202 221 246 243 241 232 206 259 283
75 89 94 113 127 132 140 140 141 145 144 144 144 142 147 151 150 149 147 145 145 148 154 153 149 143 141 132 128 132 141 190 200 193 194 221 242 252 227 210 211 236 260
75 92 102 108 115 121 125 135 138 135 138 141 142 143 144 152 152 149 147 138 134 142 147 148 146 143 149 142 135 121 107 66 170 175 190 219 238 245 229 223 213 231 276
75 86 108 118 119 121 125 129 131 129 127 127 134 144 148 150 154 155 152 141 136 133 135 140 146 146 154 148 135 130 123 98 75 106 125 31 299 291 284 248 196 257 285
82 92 96 120 127 128 127 125 124 127 126 127 125 136 145 148 158 163 165 155 145 142 134 139 155 161 162 157 146 147 158 186 119 53 13 338 338 317 286 239 219 228 267
63 82 83 99 121 128 124 121 124 126 122 121 122 119 130 148 159 166 170 163 156 153 158 162 166 167 171 171 170 167 187 191 164 163 233 333 358 343 327 298 263 231 237
75 79 87 91 104 116 121 121 123 129 129 130 127 121 116 133 144 152 160 167 163 159 166 170 167 168 172 178 190 192 195 198 174 170 218 261 263 270 282 298 282 267 254
86 84 89 89 88 108 125 129 131 132 139 144 142 136 131 119 126 138 148 149 147 155 160 162 165 169 168 175 190 201 200 193 189 209 228 243 240 241 261 314 320 309 307
89 94 100 105 97 90 109 123 134 143 144 146 145 145 143 140 142 149 154 149 148 145 141 148 154 169 175 183 200 213 201 198 207 219 226 235 230 231 260 273 290 296 295
77 86 94 104 110 100 85 80 110 115 151 155 160 159 160 171 187 177 167 165 168 175 160 150 160 175 183 198 200 197 198 206 227 229 222 227 242 262 273 269 276 281 274
80 87 95 107 109 111 107 76 55 81 90 106 130 152 167 181 178 182 185 187 182 175 172 189 201 201 202 205 206 212 214 217 223 226 225 226 236 249 266 275 273 269 273
65 79 91 99 113 121 132 128 107 70 72 87 109 123 152 167 177 190 192 190 191 186 198 202 209 211 209 208 213 218 227 227 221 225 232 235 238 247 258 265 269 273 272
39 33 52 109 125 131 133 137 140 137 120 84 85 122 147 171 175 185 175 168 206 214 212 213 217 217 216 216 219 224 227 227 229 232 235 236 235 242 250 256 259 265 272
24 20 43 88 104 118 124 122 128 137 145 141 117 127 179 178 170 186 172 187 204 224 231 235 230 223 221 221 226 226 225 229 229 229 232 232 231 235 246 252 259 268 271
19 15 21 78 102 108 115 129 141 150 158 168 184 206 206 184 191 215 226 207 210 227 232 233 238 236 226 223 223 223 227 230 229 232 235 235 234 236 244 250 256 261 263
15 16 12 30 68 100 126 143 155 159 176 199 219 232 224 207 216 222 228 225 222 229 233 235 236 235 235 233 226 223 225 231 233 231 232 235 237 243 248 250 256 261 266
3 7 6 10 21 54 115 150 160 192 214 227 240 246 251 236 225 235 239 240 241 242 234 234 241 239 233 233 232 230 234 238 236 233 232 233 237 242 249 252 255 259 263
1 3 2 351 347 12 12 359 291 259 252 251 255 252 248 241 238 238 243 245 240 240 249 243 239 240 244 243 239 229 233 238 239 233 231 234 238 242 242 245 247 254 262
356 356 351 339 338 340 305 285 276 271 264 257 257 259 256 252 252 254 253 248 241 241 250 254 250 244 247 253 251 248 249 251 249 243 234 234 240 244 244 247 249 252 258
349 346 343 336 326 314 299 288 280 276 274 271 266 265 264 264 260 261 260 257 257 254 254 257 254 251 249 250 253 257 260 261 260 256 249 239 238 240 242 245 252 259 260
337 334 327 323 318 308 297 287 281 276 273 274 273 270 269 266 262 263 260 258 263 262 264 264 256 254 256 257 257 261 264 263 263 263 258 247 242 244 244 248 251 255 258
Height
1465 1467 1469 1472 1474 1477 1480 1482 1485 1487 1490 1493 1495 1497 1500 1502 1504 1507 1509 1511 1513 1515 1517 1518 1520 1522 1524 1525 1527 1528 1529 1531 1532 1532 1534 1535 1536 1536 1537 1537 1537 1537 1537
1462 1464 1467 1469 1471 1474 1476 1479 1481 1484 1487 1489 1492 1494 1496 1499 1501 1503 1505 1507 1509 1511 1513 1515 1517 1519 1520 1522 1523 1524 1526 1527 1528 1529 1530 1531 1532 1533 1534 1534 1534 1534 1534
1460 1461 1463 1466 1468 1470 1473 1475 1478 1481 1483 1486 1488 1491 1493 1495 1498 1500 1502 1504 1506 1508 1510 1512 1513 1515 1517 1518 1519 1521 1522 1523 1525 1525 1526 1527 1528 1529 1529 1530 1530 1530 1530
1457 1459 1461 1463 1465 1467 1469 1472 1474 1477 1480 1482 1485 1487 1490 1492 1495 1497 1499 1501 1503 1505 1507 1509 1510 1512 1513 1514 1516 1517 1518 1520 1521 1521 1522 1523 1524 1525 1525 1525 1525 1526 1526
1455 1456 1458 1460 1462 1464 1466 1468 1471 1474 1477 1479 1481 1484 1486 1489 1491 1493 1496 1498 1500 1501 1503 1505 1507 1509 1510 1511 1512 1513 1515 1516 1517 1517 1518 1519 1520 1521 1521 1521 1521 1521 1521
1453 1454 1455 1457 1459 1461 1463 1466 1468 1471 1473 1476 1478 1481 1483 1485 1488 1490 1492 1495 1496 1498 1500 1502 1503 1504 1506 1507 1509 1510 1512 1513 1513 1514 1515 1516 1516 1517 1517 1517 1517 1517 1516
1451 1452 1453 1455 1456 1458 1461 1463 1465 1468 1470 1472 1475 1477 1480 1482 1484 1487 1489 1491 1493 1495 1497 1498 1500 1501 1503 1504 1506 1507 1508 1510 1511 1512 1512 1512 1513 1514 1514 1513 1513 1513 1512
1449 1450 1451 1452 1454 1456 1458 1460 1462 1465 1467 1469 1471 1474 1476 1479 1481 1483 1486 1488 1490 1492 1494 1495 1497 1499 1500 1501 1503 1504 1505 1506 1507 1508 1509 1509 1510 1510 1510 1510 1510 1509 1509
1447 1448 1449 1450 1452 1453 1455 1457 1459 1462 1464 1466 1469 1471 1473 1476 1478 1481 1483 1485 1487 1489 1491 1492 1494 1496 1498 1499 1500 1500 1501 1502 1504 1504 1505 1506 1506 1506 1506 1506 1506 1505 1504
1445 1446 1447 1448 1450 1451 1453 1455 1457 1459 1461 1464 1466 1469 1471 1473 1476 1478 1481 1482 1484 1486 1488 1490 1492 1493 1495 1496 1498 1498 1498 1499 1500 1501 1502 1502 1502 1502 1503 1502 1502 1502 1501
1444 1444 1445 1446 1448 1449 1451 1453 1455 1457 1459 1461 1464 1466 1469 1471 1473 1476 1478 1480 1481 1483 1485 1487 1489 1491 1492 1494 1495 1495 1496 1497 1497 1498 1498 1498 1498 1499 1499 1499 1499 1499 1498
1441 1442 1443 1444 1446 1447 1449 1450 1453 1455 1457 1459 1461 1463 1466 1468 1471 1473 1475 1477 1479 1480 1482 1484 1485 1487 1489 1490 1491 1492 1493 1494 1494 1494 1494 1494 1494 1495 1495 1495 1495 1495 1495
1439 1440 1441 1443 1444 1445 1447 1448 1450 1453 1454 1456 1459 1460 1463 1466 1468 1470 1472 1474 1476 1478 1479 1481 1482 1484 1485 1487 1488 1489 1489 1490 1490 1490 1490 1490 1491 1491 1491 1491 1491 1490 1490
1437 1438 1440 1441 1442 1443 1445 1447 1448 1450 1452 1454 1456 1458 1461 1463 1465 1467 1469 1471 1473 1475 1476 1477 1479 1480 1482 1483 1484 1485 1486 1486 1487 1487 1487 1487 1487 1487 1487 1487 1486 1486 1485
1436 1437 1438 1439 1440 1442 1443 1445 1447 1449 1451 1452 1454 1457 1458 1460 1462 1465 1466 1468 1470 1471 1472 1473 1475 1476 1477 1478 1479 1480 1481 1482 1483 1483 1483 1483 1483 1483 1482 1482 1482 1481 1480
1435 1436 1437 1438 1439 1440 1441 1443 1445 1448 1450 1452 1453 1455 1457 1459 1460 1462 1464 1465 1467 1468 1470 1470 1470 1471 1472 1474 1475 1476 1477 1478 1478 1478 1479 1479 1478 1478 1478 1478 1478 1477 1475
1434 1435 1436 1436 1438 1439 1440 1441 1443 1446 1448 1450 1451 1453 1455 1456 1458 1459 1460 1462 1463 1465 1466 1466 1466 1467 1468 1469 1471 1471 1472 1473 1473 1474 1474 1474 1474 1474 1473 1473 1472 1472 1471
1434 1434 1434 1435 1436 1437 1439 1440 1442 1443 1445 1446 1449 1450 1452 1453 1455 1456 1457 1459 1459 1460 1461 1461 1462 1463 1464 1465 1466 1467 1467 1468 1469 1469 1469 1469 1469 1469 1469 1468 1468 1467 1466
1433 1433 1433 1434 1435 1436 1437 1438 1440 1441 1443 1444 1446 1447 1449 1450 1451 1453 1454 1455 1455 1456 1457 1458 1458 1459 1460 1460 1461 1462 1463 1463 1464 1464 1464 1464 1464 1464 1464 1463 1463 1462 1461
1432 1432 1432 1433 1433 1434 1435 1437 1438 1439 1440 1442 1443 1444 1445 1447 1448 1448 1450 1450 1451 1452 1452 1453 1454 1455 1455 1456 1457 1457 1458 1458 1458 1459 1459 1459 1459 1459 1458 1458 1458 1457 1456
1431 1431 1431 1431 1432 1432 1433 1434 1435 1437 1438 1439 1440 1441 1443 1444 1444 1445 1445 1446 1447 1447 1448 1449 1449 1450 1450 1451 1452 1452 1452 1453 1453 1454 1454 1454 1454 1454 1453 1453 1453 1452 1451
1430 1430 1430 1430 1430 1431 1431 1432 1433 1434 1435 1436 1437 1438 1439 1440 1440 1441 1441 1442 1442 1443 1444 1444 1444 1445 1445 1446 1446 1447 1447 1448 1448 1449 1449 1449 1449 1449 1448 1448 1447 1447 1446
1429 1428 1428 1428 1428 1429 1429 1430 1431 1432 1433 1433 1434 1434 1435 1436 1436 1436 1437 1437 1438 1439 1439 1439 1440 1440 1440 1441 1441 1442 1442 1442 1443 1444 1444 1444 1444 1444 1443 1443 1442 1442 1441
1428 1427 1427 1427 1427 1427 1427 1428 1429 1429 1430 1430 1430 1431 1431 1431 1432 1432 1433 1433 1433 1434 1434 1434 1434 1435 1435 1436 1436 1437 1437 1437 1438 1438 1438 1438 1438 1438 1438 1437 1437 1436 1436
1427 1426 1426 1425 1425 1425 1426 1426 1426 1426 1426 1427 1427 1427 1427 1427 1428 1428 1428 1429 1429 1429 1429 1429 1429 1430 1430 1431 1431 1431 1432 1432 1433 1433 1433 1433 1433 1432 1432 1432 1431 1430 1430
1426 1425 1425 1424 1424 1424 1424 1423 1423 1423 1423 1423 1423 1423 1423 1423 1423 1424 1424 1424 1424 1424 1424 1424 1425 1425 1425 1425 1426 1426 1427 1427 1427 1428 1428 1427 1427 1427 1426 1426 1425 1425 1424